Regional Weather Roundup
Issued by NWS

Home | Current Version | Previous Version | Graphics & Text | Print | Product List | Glossary On
Versions: 1 2 3 4 5 6 7 8 9 10 11 12 13 14 15 16 17 18 19 20 21 22 23 24 25 26 27 28 29 30 31 32 33 34 35 36 37 38 39 40 41 42 43 44 45 46 47 48 49 50
000
ASUS43 KDMX 191206
RWRIA

WEATHER ROUNDUP FOR IOWA
NATIONAL WEATHER SERVICE DES MOINES IA
600 AM CST FRI JAN 19 2018

NOTE: "FAIR" INDICATES FEW OR NO CLOUDS BELOW 12,000 FEET WITH NO
SIGNIFICANT WEATHER AND/OR OBSTRUCTIONS TO VISIBILITY.

* - THESE STATIONS ARE NOT NWS STATIONS...THUS NOT UNDER NWS
QUALITY CONTROL.  THEY ALSO DO NOT REPORT WEATHER SUCH
AS PRECIPITATION OR FOG.

IAZ001>003-012>014-020>022-031>034-043>046-191300-
   NORTHWEST IOWA

CITY           SKY/WX    TMP DP  RH WIND       PRES   REMARKS
CARROLL *      CLOUDY    32  25  74 SW14      29.74F WCI  22
CHEROKEE *     CLOUDY    26  24  91 S5        29.68F WCI  20
DENISON *      CLOUDY    32  23  69 S9        29.75F WCI  24
LE MARS *      CLOUDY    30  27  86 S12       29.66F WCI  21
ORANGE CITY *  CLOUDY    28  27  93 S5        29.65F WCI  23
SHELDON *      CLOUDY    27  25  93 S10       29.64S WCI  17
SIOUX CITY     CLOUDY    26  23  88 SE10      29.68F WCI  16
6HR MIN TEMP:  24; 6HR MAX TEMP:  29;

SPENCER        CLOUDY    26  22  84 S3        29.68F
6HR MIN TEMP:  23; 6HR MAX TEMP:  29;

STORM LAKE *   CLOUDY    30  25  80 S14       29.68F WCI  20
$$

IAZ055>058-069>071-079>083-090>094-191300-
   SOUTHWEST IOWA

CITY           SKY/WX    TMP DP  RH WIND       PRES   REMARKS
ATLANTIC *     CLOUDY    30  27  86 S12       29.79F WCI  21
AUDUBON *      CLOUDY    30  25  80 S14       29.78F WCI  20
CLARINDA *     CLOUDY    30  25  80 S8          N/A  WCI  23
COUNCIL BLFS * CLOUDY    34  27  75 S13G20    29.77F WCI  25
CRESTON *      CLOUDY    32  23  69 SW13      29.83F WCI  22
HARLAN  *      CLOUDY    28  25  86 S13       29.80F WCI  18
LAMONI         CLOUDY    31  21  66 S13       29.85F WCI  21
6HR MIN TEMP:  29; 6HR MAX TEMP:  32;

RED OAK *      CLOUDY    32  25  74 S8        29.82F WCI  25
SHENANDOAH *   CLOUDY    34  25  69 S13       29.84F WCI  25
$$

IAZ047>049-059>061-072>074-084-191300-
   CENTRAL IOWA

CITY           SKY/WX    TMP DP  RH WIND       PRES   REMARKS
AMES           MOCLDY    25  22  88 S7        29.78F WCI  17
6HR MIN TEMP:  24; 6HR MAX TEMP:  29;

ANKENY *       PTCLDY    32  23  69 S8        29.81F WCI  25
BOONE *        CLOUDY    32  25  74 SW10      29.76F WCI  24
CHARITON *     CLOUDY    28  21  74 S12       29.84S WCI  18
DES MOINES     CLOUDY    33  23  66 SW8       29.81F WCI  26
6HR MIN TEMP:  29; 6HR MAX TEMP:  34;

GRINNELL*      PTCLDY    29  22  76 S13       29.82F WCI  19
KNOXVILLE *    CLOUDY    32  21  64 SW14G20   29.82S WCI  22
MARSHALLTOWN   CLOUDY    29  22  75 SW10      29.78F WCI  20
6HR MIN TEMP:  27; 6HR MAX TEMP:  30;

NEWTON *       CLOUDY    30  23  74 SW14      29.81F WCI  20
PELLA *        CLOUDY    33  22  65 SW10      29.84F WCI  24
PERRY *          N/A     29  25  84 S9        29.77F WCI  21
$$

IAZ004>006-015-016-023>025-035-036-191300-
   NORTH CENTRAL IOWA

CITY           SKY/WX    TMP DP  RH WIND       PRES   REMARKS
ALGONA *       CLOUDY    25 N/A N/A S13       29.70S WCI  13
CLARION *      CLOUDY    25  25 100 S9        29.74S WCI  15
ESTHERVILLE    CLOUDY    25  23  92 S12       29.66F WCI  14
6HR MIN TEMP:  25; 6HR MAX TEMP:  31;

FORT DODGE *   CLOUDY    28  23  81 S14       29.72F WCI  17
MASON CITY     CLOUDY    27  21  78 S9        29.73F WCI  18
6HR MIN TEMP:  27; 6HR MAX TEMP:  29;

FOREST CITY *    N/A     30  25  80 S8        29.71F WCI  23
WEBSTER CITY * CLOUDY    25  21  86 S8        29.72F WCI  16
IOWA FALLS *     N/A     27  23  84 S7        29.77S WCI  20
$$

IAZ007>011-017>019-026>030-037>042-050>054-066-191300-
   NORTHEAST IOWA

CITY           SKY/WX    TMP DP  RH WIND       PRES   REMARKS
CEDAR RAPIDS     N/A     25  19  78 S9        29.82F WCI  15
6HR MIN TEMP:  25; 6HR MAX TEMP:  29;

CHARLES CITY *   N/A     23  23 100 S8        29.76F WCI  14
CLINTON *        N/A     26  20  77 S10       29.88F WCI  16
DECORAH *        N/A     27  21  80 SW8G14    29.74F WCI  18
DUBUQUE          N/A     23  17  78 S7        29.83S WCI  15
6HR MIN TEMP:  23; 6HR MAX TEMP:  25;

MONTICELLO *     N/A     23  19  86 S7        29.84S WCI  15
OELWEIN *        N/A     21  21 100 S10       29.79F WCI  10
WATERLOO         N/A     20  17  88 SE5       29.78F WCI  13
6HR MIN TEMP:  19; 6HR MAX TEMP:  26;

$$

IAZ064-065-067-068-078-191300-
   EAST CENTRAL IOWA

CITY           SKY/WX    TMP DP  RH WIND       PRES   REMARKS
DAVENPORT        N/A     29  19  66 S12       29.90F WCI  19
6HR MIN TEMP:  29; 6HR MAX TEMP:  32;

IOWA CITY        N/A     26  18  71 S6        29.88F WCI  19
6HR MIN TEMP:  25; 6HR MAX TEMP:  29;

MT. PLEASANT * CLOUDY    30  21  69 S16       29.90F WCI  19
MUSCATINE *      N/A     30  21  69 S9        29.91S WCI  22
QUAD CITIES      N/A     31  21  66 SW12      29.89F WCI  22
6HR MIN TEMP:  29; 6HR MAX TEMP:  31;

$$

IAZ062-063-075>077-085>089-095>099-191300-
   SOUTHEAST IOWA

CITY           SKY/WX    TMP DP  RH WIND       PRES   REMARKS
BURLINGTON     CLOUDY    30  19  63 S12       29.92S WCI  20
6HR MIN TEMP:  29; 6HR MAX TEMP:  31;

FAIRFIELD *    CLOUDY    30  19  64 S8        29.88S WCI  23
FORT MADISON * CLOUDY    30  19  64 S14       29.93F WCI  20
KEOKUK *       CLOUDY    30  19  64 S13       29.93F WCI  20
OSKALOOSA *      N/A     31  22  69 SW13      29.86S WCI  21
CENTERVILLE *    N/A     32  21  64 S16       29.88F WCI  21
OTTUMWA        CLOUDY    33  20  58 SW12      29.86F WCI  24
6HR MIN TEMP:  33; 6HR MAX TEMP:  35;

WASHINGTON *   CLOUDY    28  21  74 S9        29.89S WCI  20
$$

ABBREVIATIONS USED IN REMARKS
   TC - TEMPERATURES IN CELSIUS
  WCI - WIND CHILL INDEX
   HX - HEAT INDEX
  VSB - VISIBILITY
$$





USA.gov is the U.S. government's official web portal to all federal, state and local government web resources and services.